Regional Weather Roundup
Issued by NWS

Home | Current Version | Previous Version | Graphics & Text | Print | Product List | Glossary On
Versions: 1 2 3 4 5 6 7 8 9 10 11 12 13 14 15 16 17 18 19 20 21 22 23 24 25 26 27 28 29 30 31 32 33 34 35 36 37 38 39 40 41 42 43 44 45 46 47 48 49 50
000
ASUS43 KDMX 012007
RWRIA

WEATHER ROUNDUP FOR IOWA
NATIONAL WEATHER SERVICE DES MOINES IA
300 PM CDT WED JUL 01 2015

NOTE: "FAIR" INDICATES FEW OR NO CLOUDS BELOW 12,000 FEET WITH NO
SIGNIFICANT WEATHER AND/OR OBSTRUCTIONS TO VISIBILITY.

* - THESE STATIONS ARE NOT NWS STATIONS...THUS NOT UNDER NWS
QUALITY CONTROL.  THEY ALSO DO NOT REPORT WEATHER SUCH
AS PRECIPITATION OR FOG.

IAZ001>003-012>014-020>022-031>034-043>046-012100-
   NORTHWEST IOWA

CITY           SKY/WX    TMP DP  RH WIND       PRES   REMARKS
CARROLL *      CLOUDY    72  64  78 E12       29.93S
CHEROKEE *     PTSUNNY   72  64  78 E9G16     29.94S
DENISON *      PTSUNNY   73  68  83 E9        29.90F
LE MARS *      CLOUDY    73  66  78 E10       29.93F
ORANGE CITY *  MOSUNNY   73  63  68 E8        29.94F
SHELDON *      PTSUNNY   72  70  94 E13       29.95S
SIOUX CITY     PTSUNNY   76  66  71 E9        29.90S
SPENCER        MOSUNNY   73  54  51 E15       29.97R
STORM LAKE *   PTSUNNY   72  63  73 E14       29.95S
$$

IAZ055>058-069>071-079>083-090>094-012100-
   SOUTHWEST IOWA

CITY           SKY/WX    TMP DP  RH WIND       PRES   REMARKS
ATLANTIC *     PTSUNNY   77  70  78 E9G16     29.90S
AUDUBON *      MOSUNNY   72  66  83 NE8       29.93F
CLARINDA *     PTSUNNY   82  72  69 VRB7      29.88S HX  87
COUNCIL BLFS * MOSUNNY   81  70  69 E10G17    29.88S HX  84
CRESTON *      PTSUNNY   77  70  78 NE12      29.90S HAZE
HARLAN  *      MOSUNNY   75  73  94 NE10      29.93F
LAMONI         CLOUDY    77  69  76 E3        29.89R
RED OAK *      CLOUDY    81  72  74 E10       29.87S HX  84
SHENANDOAH *   MOSUNNY   84  73  70 E10       29.86R HX  91
$$

IAZ047>049-059>061-072>074-084-012100-
   CENTRAL IOWA

CITY           SKY/WX    TMP DP  RH WIND       PRES   REMARKS
AMES           CLOUDY    73  60  63 E10       29.93F
ANKENY *       PTSUNNY   73  64  73 E9        29.92F
CHARITON *     MOSUNNY   75  66  73 E6        29.90F
DES MOINES     PTSUNNY   75  63  66 E9        29.92S
GRINNELL*      CLOUDY    73  63  68 NE8       29.94S
KNOXVILLE *    CLOUDY    73  64  73 NE12      29.90F
MARSHALLTOWN   PTSUNNY   73  57  57 NE13      29.95S
PELLA *        PTSUNNY   75  66  73 NE7       29.92F
PERRY *        CLOUDY    73  64  73 E13       29.92S
$$

IAZ004>006-015-016-023>025-035-036-012100-
   NORTH CENTRAL IOWA

CITY           SKY/WX    TMP DP  RH WIND       PRES   REMARKS
ALGONA *       MOSUNNY   68  55  64 E12       29.98S
CLARION *      SUNNY     68  55  64 E13       29.98R
ESTHERVILLE    MOSUNNY   70  53  54 E10       29.98S
FORT DODGE *   PTSUNNY   72  57  60 E16       29.96S
MASON CITY     LGT RAIN  65  58  78 E7        30.00F
FOREST CITY *  LGT RAIN  63  57  82 E3        30.00R
IOWA FALLS *   PTSUNNY   70  57  64 NE8       29.98R
$$

IAZ007>011-017>019-026>030-037>042-050>054-066-012100-
   NORTHEAST IOWA

CITY           SKY/WX    TMP DP  RH WIND       PRES   REMARKS
CEDAR RAPIDS   CLOUDY    69  58  67 NE9       29.95R
CHARLES CITY * SUNNY     64  57  77 E5        30.00S
CLINTON *      PTSUNNY   72  57  60 NE7       29.96F
DECORAH *        N/A    N/A N/A N/A MISG        N/A
DUBUQUE        PTSUNNY   69  55  60 NE10      29.96S
MONTICELLO *   SUNNY     70  59  68 VRB6G13   29.96R
OELWEIN *      LGT RAIN  64  57  77 NE7       30.00R
WATERLOO       CLOUDY    67  57  70 E8        29.97R
$$

IAZ064-065-067-068-078-012100-
   EAST CENTRAL IOWA

CITY           SKY/WX    TMP DP  RH WIND       PRES   REMARKS
DAVENPORT      CLOUDY    72  61  68 E10       29.93F
IOWA CITY      CLOUDY    70  61  73 NE9       29.95R
MT. PLEASANT * CLOUDY    81  63  54 NE8       29.91R HX  82
MUSCATINE *    SUNNY     73  63  68 NE12      29.92S
QUAD CITIES    CLOUDY    71  60  68 E12       29.92S
$$

IAZ062-063-075>077-085>089-095>099-012100-
   SOUTHEAST IOWA

CITY           SKY/WX    TMP DP  RH WIND       PRES   REMARKS
BURLINGTON     CLOUDY    78  68  71 NE13      29.89F HX  80
FAIRFIELD *    MOSUNNY   75  64  69 NE9G16    29.91S
FORT MADISON * PTSUNNY   73  70  88 E8        29.91R
KEOKUK *       PTSUNNY   77  70  78 NE5       29.88R
OSKALOOSA *      N/A     73  64  73 E10       29.92S
CENTERVILLE *  MOSUNNY   75  70  83 NE6       29.91R
OTTUMWA        CLOUDY    75  66  73 NE12      29.90R
WASHINGTON *   SUNNY     73  64  73 NE7       29.95R
$$

ABBREVIATIONS USED IN REMARKS
   TC - TEMPERATURES IN CELSIUS
  WCI - WIND CHILL INDEX
   HX - HEAT INDEX
  VSB - VISIBILITY
$$



USA.gov is the U.S. government's official web portal to all federal, state and local government web resources and services.